Regional Weather Roundup
Issued by NWS

Home | Current Version | Previous Version | Text Only | Print | Product List | Glossary Off
Versions: 1 2 3 4 5 6 7 8 9 10 11 12 13 14 15 16 17 18 19 20 21 22 23 24 25 26 27 28 29 30 31 32 33 34 35 36 37 38 39 40 41 42 43 44 45 46 47 48 49 50

000
ASUS43 KMKX 220211
RWRWI

WISCONSIN REGIONAL WEATHER ROUNDUP
NATIONAL WEATHER SERVICE MILWAUKEE/SULLIVAN WI
900 PM CDT MON AUG 21 2017

NOTE: "FAIR" INDICATES FEW OR NO CLOUDS BELOW 12,000 FEET WITH NO
SIGNIFICANT WEATHER AND/OR OBSTRUCTIONS TO VISIBILITY.

WIZ001-002-006>008-014>016-023>028-220300-
NORTHWEST WISCONSIN

CITY           SKY/WX    TMP DP  RH WIND       PRES   REMARKS
SUPERIOR ARPT    N/A     62  61  97 NE7       29.81F
ASHLAND        MOCLDY    61  59  93 SE3       29.81F
HAYWARD        CLOUDY    67  64  90 S7        29.83F
SIREN          CLOUDY    69  63  81 SW9G17    29.83F
CUMBERLAND     MOCLDY    64  63  94 SW6       29.85F
RICE LAKE      MOCLDY    65  62  89 CALM      29.86F
CHETEK         MOCLDY    67  63  87 CALM      29.85F
LADYSMITH      MOCLDY    69  67  94 CALM      29.87F
EAU CLAIRE     CLOUDY    69  62  78 NW5       29.85S
MENOMONIE      CLOUDY    67  62  84 CALM      29.86R
NEW RICHMOND   CLOUDY    66  64  92 SW7       29.86F
OSCEOLA        CLOUDY    68  68 100 SW5       29.88S
$$

WIZ003>005-009-010-017-018-220300-
NORTH CENTRAL WISCONSIN

CITY           SKY/WX    TMP DP  RH WIND       PRES   REMARKS
MANITOWISH WTR CLOUDY    67  67 100 S3        29.85F
ARBOR VITAE    CLOUDY    67  65  94 S3        29.85F
WOODRUFF       CLOUDY    67  65  94 S3        29.85F
RHINELANDER    CLOUDY    68  67  96 W6        29.87F
EAGLE RIVER    CLOUDY    66  65  99 CALM      29.85F
LAND O LAKES   CLOUDY    67  65  96 CALM      29.88F
PHILLIPS       CLOUDY    69  69  99 CALM      29.86F
TOMAHAWK         N/A     65  64  96 CALM      29.87F FOG
MEDFORD        CLOUDY    66  64  93 SW5       29.87S
MERRILL        NOT AVBL
$$

WIZ029-030-035-036-043>047-220300-
CENTRAL WISCONSIN

CITY           SKY/WX    TMP DP  RH WIND       PRES   REMARKS
WAUSAU         CLOUDY    70  64  81 S8        29.83F
MOSINEE        CLEAR     70  64  83 S5        29.86F
MARSHFIELD     CLOUDY    66  63  90 NW5       29.83F
STEVENS POINT  LGT RAIN  66  66 100 SE8       29.85F
WAUPACA        CLOUDY    74  65  75 S5        29.88F
WAUTOMA        LGT RAIN  72  66  81 S5        29.89F
WISC RAPIDS    LGT RAIN  68  65  90 S7        29.85F
CAMP DOUGLAS   LGT RAIN  68  66  94 SE10      29.83F
$$

WIZ011>013-019>022-031-037>040-048>050-220300-
NORTHEAST WISCONSIN

CITY           SKY/WX    TMP DP  RH WIND       PRES   REMARKS
ANTIGO         CLOUDY    66  66 100 S3        29.87F
SHAWANO        PTCLDY    75  66  75 CALM      29.85F
OCONTO         CLOUDY    73  69  87 S7        29.84F
STURGEON BAY   MOCLDY    71  66  84 S9        29.88F
GREEN BAY      MOCLDY    74  71  91 S6        29.87F
MANITOWOC        N/A    N/A N/A N/A MISG        N/A
APPLETON       MOCLDY    72  66  83 SW6       29.88F
CLINTONVILLE   MOCLDY    72  63  73 SW7       29.86F
OSHKOSH        CLOUDY    72  69  90 S5        29.89F
$$

WIZ032>034-041-042-053>061-220300-
SOUTHWEST WISCONSIN

CITY           SKY/WX    TMP DP  RH WIND       PRES   REMARKS
LA CROSSE      CLOUDY    70  66  87 SW7       29.81F
SPARTA         CLOUDY    64  64  97 CALM      29.82F
VIROQUA        CLOUDY    65  65 100 SE8       29.82F
BOSCOBEL       LGT RAIN  70  67  90 SE3       29.89F
PRAIRIE DU CHI CLOUDY    68  65  90 E8        29.83F
PLATTEVILLE    CLOUDY    72  72 100 SW8       29.98R
$$

WIZ056-057-062-063-064-067-068-220300-
SOUTH CENTRAL WISCONSIN

CITY           SKY/WX    TMP DP  RH WIND       PRES   REMARKS
REEDSBURG      RAIN      71  68  91 SW6       29.90S
BARABOO/DELLS  CLOUDY    72  64  78 W3        29.91S
LONE ROCK      LGT RAIN  72  68  87 VRB3      29.91F
MINERAL POINT  CLOUDY    72  70  94 SW6       29.96R
MADISON        MOCLDY    74  67  78 S5        29.91F
MIDDLETON      MOCLDY    73  67  81 SW7       29.93S
WATERTOWN      PTCLDY    71  70  99 S3        29.91F
MONROE         CLOUDY    72  68  88 S8        29.95S
JANESVILLE     MOCLDY    73  72  94 S6        29.93F
$$

WIZ051-052-058>065-066-070>072-220300-
SOUTHEAST WISCONSIN

CITY           SKY/WX    TMP DP  RH WIND       PRES   REMARKS
MILWAUKEE      MOCLDY    78  69  73 SW10      29.92F HX  80
WAUKESHA       PTCLDY    72  64  78 SW5       29.95
MILWAUKEE/TIMM PTCLDY    75  64  69 SW6       29.93F
RACINE         CLOUDY    76  68  76 SW9       29.95F
KENOSHA        CLOUDY    76  68  76 SW8       29.95S
FOND DU LAC    CLOUDY    72  67  84 S5        29.90F
SHEBOYGAN      CLOUDY    72  72 100 S5        29.89F FOG
WEST BEND      MOCLDY    72  70  94 SW3       29.91F
JUNEAU         CLOUDY    70  67  88 CALM      29.92F
$$

LSZ147-162-220300-
LAKE SUPERIOR

STATION/POSITION TIME  TEMP    WIND        PRES    WAVE
                       AIR SEA DIR/SP/G            HT/PER
                 (UTC) (F)     (DEG/KT/KT) (MB)    (FT/S)
W MID LAKE BUOY  0150   63 60   50/  8/ 10 1009.5F   0
DEVILS ISLAND    0200   61      10/  6/  7 1011.2R
PORT WING        0030   71      CALM  /  3 1010.2F
SAXON HARBOR     0140   64     190/  2/  5 1009.1F
$$

LMZ867-665-643>646-220300-
LAKE MICHIGAN

STATION/POSITION TIME  TEMP    WIND        PRES    WAVE
                       AIR SEA DIR/SP/G            HT/PER
                 (UTC) (F)     (DEG/KT/KT) (MB)    (FT/S)
S GREEN BAY BUOY 0200   74 72  180/ 16/ 17 1010.6
N MID LAKE BUOY  0150   70 68  200/ 14/ 17 1011.5F   1/ 4
NORTHPORT PIER   0140   71     170/  4/ 11 1011.2F
KEWAUNEE LAKESHO 0148   71     200/  7/ 10 1011.2F
SHEBOYGAN LAKESH 0200   73     190/ 10/ 11 1011.6F
PORT WASHINGTON  0140   73     170/  2/  5 1013.5F
ATWATER BUOY     0109   77 69  220/ 10/ 12 1013.5F
MILWAUKEE LAKESH 0150   78     230/ 13/ 14   N/A
S MID LAKE BUOY  0150   75 72  200/ 12/ 14 1013.5F   1/ 3
KENOSHA   LAKESH 0200   78     220/  7/ 14 1013.9
$$

TC  - TEMPERATURE IN CELSIUS
VSB - VISIBILITY IN STATUTE MILES
WCI - WIND CHILL INDEX
HX  - HEAT INDEX





USA.gov is the U.S. government's official web portal to all federal, state and local government web resources and services.